Regional Weather Roundup
Issued by NWS

Home | Current Version | Previous Version | Graphics & Text | Print | Product List | Glossary On
Versions: 1 2 3 4 5 6 7 8 9 10 11 12 13 14 15 16 17 18 19 20 21 22 23 24 25 26 27 28 29 30 31 32 33 34 35 36 37 38 39 40 41 42 43 44 45 46 47 48 49 50
000
ASUS43 KLSX 260707
RWRMO

WEATHER SUMMARY FOR MISSOURI
NATIONAL WEATHER SERVICE SPRINGFIELD MO
200 AM CDT TUE JUL 26 2016

NOTE: "FAIR" INDICATES FEW OR NO CLOUDS BELOW 12,000 FEET WITH NO
       SIGNIFICANT WEATHER AND/OR OBSTRUCTIONS TO VISIBILITY.
       CURRENT SKY AND/OR WEATHER CONDITIONS ARE NOT AVAILABLE FOR
       CHILLICOTHE AND FARMINGTON.

MOZ001>031-035>038-043-044-053-054-260800-
...NORTHERN AND WESTERN MISSOURI...

CITY           SKY/WX    TMP DP  RH WIND       PRES   REMARKS
KANSAS CTY INT MOCLDY    73  69  87 NE6       30.06S
KANSAS C DTWN  CLOUDY    78  68  71 E3        30.04S
LEE`S SUMMIT   CLOUDY    75  69  81 E3        30.06S
ST JOSEPH      CLEAR     69  65  86 N5        30.06S
CHILLICOTHE      N/A     71  68  90 CALM      30.07S
KIRKSVILLE     CLEAR     64  63  96 N3        30.07S

$$
MOZ066>068-077>081-088>096-101>105-260800-
...SOUTHWEST MISSOURI...

CITY           SKY/WX    TMP DP  RH WIND       PRES   REMARKS
SPRINGFIELD    CLEAR     74  70  87 CALM      30.04R
JOPLIN         CLOUDY    74  73  97 CALM      30.03F
BRANSON        CLOUDY    73  72  94 CALM      30.04S

$$
MOZ032>034-039>042-045>050-055>058-069>072-260800-
...CENTRAL MISSOURI...

CITY           SKY/WX    TMP DP  RH WIND       PRES   REMARKS
COLUMBIA       CLEAR     70  69  97 NE5       30.04S
JEFFERSON CITY CLEAR     71  69  93 N3        30.03S
ROLLA          CLOUDY    72  70  93 CALM      30.03S
SEDALIA        CLOUDY    73  70  90 CALM      30.06R
WHITEMAN AFB   MOCLDY    74  74 100 E1        30.04R
OSAGE BEACH    CLOUDY    73  71  93 E3        30.04S

$$
MOZ051-052-059>065-260800-
...EAST CENTRAL MISSOURI...

CITY           SKY/WX    TMP DP  RH WIND       PRES   REMARKS
ST LOUIS INTL  CLOUDY    79  74  84 N5        30.01F
SPIRIT OF STL  CLOUDY    78  74  87 CALM      30.00F
ST CHARLES     CLOUDY    76  74  93 N5        29.99F

$$
MOZ072>076-082>087-097>100-106>115-260800-
...SOUTH CENTRAL AND SOUTHEAST MISSOURI...

CITY           SKY/WX    TMP DP  RH WIND       PRES   REMARKS
CAPE GIRARDEAU FOG       75  74  96 CALM      29.98S VSB 3/4
FARMINGTON     CLOUDY    75  70  84 CALM      30.03S
POPLAR BLUFF   CLEAR     75  74  96 N3        29.98S FOG
WEST PLAINS    CLOUDY    76  72  87 CALM      30.05S

$$


USA.gov is the U.S. government's official web portal to all federal, state and local government web resources and services.